^^
Datos históricos de la estación: Murcia-Puente Tocinos
Diario Informe para Abril 1, 2019 Unidades:  Métrico    Inglés   Ambas
Diario Semanal Mensual Anual Configurable
  Máximo: Mínimo: Media:
Temperatura: 18.8 °C 12.7 °C 15 °C
Punto de rocio: 13.8 °C 10.8 °C 12.2 °C
Humedad: 96% 64% 84%
Velocidad viento: 19.3km/h 0.0km/h 6km/h
Racha viento: 30.6km/h - -
Viento- - SE
Presión: 1015.7 hPa 1011.0 hPa -
Precipitación: 3.3 mm    
Historical Graphs
 
 
Tabla de datos para Abril 1, 2019
Hora Temperatura Punto de rocio Presión Viento Velocidad viento Racha viento Humedad Intensidad lluvia(por hora) Nubes
00:00 13.4 °C 12.3 °C 1011.0 hPa SSE 3.2 km/h 8.0 km/h 93% 0.0 mm RA
00:05 13.4 °C 12.3 °C 1011.1 hPa South 3.2 km/h 9.7 km/h 93% 0.0 mm RA
00:09 13.4 °C 12.3 °C 1011.1 hPa SSW 5.8 km/h 8.4 km/h 93% 0.0 mm RA
00:15 13.4 °C 12.3 °C 1011.1 hPa SSW 5.8 km/h 7.4 km/h 93% 0.0 mm CLR
00:20 13.4 °C 12.3 °C 1011.2 hPa SSW 6.4 km/h 7.4 km/h 93% 0.0 mm CLR
00:25 13.4 °C 12.3 °C 1011.2 hPa SSW 8.0 km/h 8.0 km/h 93% 0.0 mm CLR
00:29 13.4 °C 12.3 °C 1011.2 hPa SSW 4.7 km/h 7.4 km/h 93% 0.0 mm CLR
00:35 13.5 °C 12.4 °C 1011.1 hPa SSW 3.2 km/h 8.0 km/h 93% 0.0 mm CLR
00:40 13.5 °C 12.4 °C 1011.1 hPa SSW 4.7 km/h 5.6 km/h 93% 0.0 mm CLR
00:45 13.6 °C 12.4 °C 1011.1 hPa SSW 3.2 km/h 6.4 km/h 93% 0.0 mm CLR
00:49 13.6 °C 12.5 °C 1011.1 hPa SSW 2.9 km/h 4.7 km/h 93% 0.0 mm CLR
00:54 13.6 °C 12.5 °C 1011.1 hPa SSW 2.9 km/h 6.4 km/h 93% 0.0 mm CLR
00:59 13.6 °C 12.5 °C 1011.1 hPa SSW 3.9 km/h 7.4 km/h 93% 0.0 mm CLR
01:04 13.6 °C 12.5 °C 1011.1 hPa SSW 3.9 km/h 5.6 km/h 93% 0.0 mm CLR
01:09 13.6 °C 12.5 °C 1011.1 hPa SSW 3.2 km/h   93% 0.0 mm CLR
01:15 13.6 °C 12.5 °C 1011.1 hPa SSW 3.2 km/h   93% 0.0 mm CLR
01:19 13.6 °C 12.5 °C 1011.0 hPa Calm     93% 0.0 mm CLR
01:25 13.6 °C 12.5 °C 1011.0 hPa Calm     93% 0.0 mm CLR
01:29 13.6 °C 12.5 °C 1011.0 hPa Calm   3.9 km/h 93% 0.0 mm CLR
01:35 13.6 °C 12.5 °C 1011.1 hPa Calm   4.8 km/h 93% 0.0 mm CLR
01:39 13.6 °C 12.5 °C 1011.1 hPa SSW 2.3 km/h 3.9 km/h 93% 0.0 mm CLR
01:45 13.6 °C 12.5 °C 1011.1 hPa SSW 2.3 km/h 3.7 km/h 93% 0.0 mm CLR
01:50 13.6 °C 12.5 °C 1011.1 hPa SSW 3.2 km/h 6.4 km/h 93% 0.0 mm CLR
01:55 13.6 °C 12.7 °C 1011.1 hPa SSW 3.2 km/h 8.0 km/h 94% 0.0 mm CLR
02:00 13.6 °C 12.7 °C 1011.1 hPa SSW 3.2 km/h 4.8 km/h 94% 0.0 mm CLR
02:05 13.5 °C 12.6 °C 1011.2 hPa SSW 3.2 km/h 4.8 km/h 94% 0.0 mm CLR
02:09 13.5 °C 12.6 °C 1011.2 hPa SSW 2.3 km/h   94% 0.0 mm CLR
02:15 13.5 °C 12.6 °C 1011.2 hPa SSW 2.3 km/h 3.7 km/h 94% 0.0 mm CLR
02:19 13.5 °C 12.6 °C 1011.2 hPa SSW 2.3 km/h 3.7 km/h 94% 0.0 mm CLR
02:25 13.4 °C 12.4 °C 1011.2 hPa SSW 1.6 km/h 3.2 km/h 94% 0.0 mm CLR
02:29 13.5 °C 12.6 °C 1011.2 hPa Calm     94% 0.0 mm CLR
02:35 13.5 °C 12.6 °C 1011.2 hPa Calm     94% 0.0 mm CLR
02:40 13.5 °C 12.6 °C 1011.2 hPa Calm     94% 0.0 mm CLR
02:45 13.5 °C 12.6 °C 1011.2 hPa Calm   8.0 km/h 94% 0.0 mm CLR
02:50 13.4 °C 12.4 °C 1011.3 hPa West 2.3 km/h 3.7 km/h 94% 0.0 mm CLR
02:55 13.4 °C 12.4 °C 1011.3 hPa West 1.6 km/h 1.6 km/h 94% 0.0 mm CLR
02:59 13.4 °C 12.4 °C 1011.3 hPa West 2.3 km/h 5.6 km/h 94% 0.0 mm CLR
03:05 13.4 °C 12.4 °C 1011.3 hPa West 2.3 km/h 3.7 km/h 94% 0.0 mm CLR
03:09 13.4 °C 12.4 °C 1011.3 hPa West 3.2 km/h 5.6 km/h 94% 0.0 mm CLR
03:15 13.4 °C 12.4 °C 1011.3 hPa West 3.2 km/h   94% 0.0 mm CLR
03:20 13.4 °C 12.4 °C 1011.4 hPa WNW 1.6 km/h 8.0 km/h 94% 0.0 mm CLR
03:25 13.4 °C 12.4 °C 1011.4 hPa North 1.6 km/h 9.7 km/h 94% 0.0 mm CLR
03:30 13.3 °C 12.3 °C 1011.4 hPa ENE 4.8 km/h 9.7 km/h 94% 0.0 mm CLR
03:35 13.2 °C 12.3 °C 1011.4 hPa East 4.8 km/h 9.7 km/h 94% 0.0 mm CLR
03:40 13.2 °C 12.2 °C 1011.4 hPa ENE 4.8 km/h 12.9 km/h 94% 0.0 mm CLR
03:45 13.1 °C 12.2 °C 1011.4 hPa NE 5.0 km/h 9.3 km/h 94% 0.3 mm RA
03:50 13.0 °C 12.1 °C 1011.3 hPa NE 8.4 km/h 9.3 km/h 94% 0.3 mm RA
03:55 12.9 °C 11.9 °C 1011.3 hPa NE 8.4 km/h 9.3 km/h 94% 0.3 mm
04:00 12.8 °C 11.8 °C 1011.3 hPa NE 8.0 km/h 9.7 km/h 94% 0.5 mm RA
04:05 12.8 °C 11.8 °C 1011.2 hPa NE 8.0 km/h 9.7 km/h 94% 0.5 mm RA
04:09 12.7 °C 11.9 °C 1011.2 hPa NE 5.0 km/h 5.6 km/h 95% 0.8 mm RA
04:15 12.7 °C 11.9 °C 1011.2 hPa NE 4.8 km/h 4.8 km/h 95% 0.0 mm
04:20 12.7 °C 11.9 °C 1011.2 hPa NE 3.2 km/h 5.6 km/h 95% 0.8 mm CLR
04:25 12.7 °C 11.9 °C 1011.2 hPa NE 3.2 km/h 4.8 km/h 95% 0.0 mm
04:29 12.7 °C 11.9 °C 1011.2 hPa NE 2.9 km/h 3.7 km/h 95% 0.8 mm CLR
04:35 12.7 °C 11.9 °C 1011.3 hPa NE 2.9 km/h 5.6 km/h 95% 0.8 mm CLR
04:39 12.8 °C 12.0 °C 1011.3 hPa NE 3.2 km/h 7.4 km/h 95% 0.8 mm CLR
04:45 12.7 °C 11.9 °C 1011.3 hPa NE 3.2 km/h 7.4 km/h 95% 0.5 mm CLR
04:50 12.7 °C 12.1 °C 1011.3 hPa East 3.2 km/h 8.0 km/h 96% 0.0 mm
04:55 12.7 °C 12.1 °C 1011.3 hPa SSE 4.7 km/h 7.4 km/h 96% 0.5 mm CLR
05:00 12.7 °C 12.1 °C 1011.3 hPa SSE 4.8 km/h 9.7 km/h 96% 0.0 mm
05:05 12.7 °C 12.1 °C 1011.2 hPa South 5.0 km/h 7.4 km/h 96% 0.0 mm CLR
05:10 12.7 °C 12.1 °C 1011.2 hPa South 4.8 km/h 8.0 km/h 96% 0.0 mm CLR
05:15 12.7 °C 12.1 °C 1011.2 hPa South 4.8 km/h 8.0 km/h 96% 0.0 mm CLR
05:20 12.7 °C 12.1 °C 1011.3 hPa South 3.2 km/h 8.0 km/h 96% 0.0 mm CLR
05:25 12.7 °C 12.1 °C 1011.3 hPa South 3.2 km/h 8.0 km/h 96% 0.0 mm CLR
05:29 12.7 °C 12.1 °C 1011.3 hPa South 4.7 km/h 5.6 km/h 96% 0.0 mm CLR
05:35 12.7 °C 12.1 °C 1011.2 hPa South 3.2 km/h 8.0 km/h 96% 0.0 mm CLR
05:40 12.7 °C 12.1 °C 1011.2 hPa South 3.2 km/h 4.8 km/h 96% 0.0 mm CLR
05:45 12.7 °C 12.1 °C 1011.2 hPa South 2.9 km/h 5.6 km/h 96% 0.0 mm CLR
05:50 12.7 °C 12.1 °C 1011.2 hPa South 3.2 km/h 3.7 km/h 96% 0.0 mm CLR
05:55 12.7 °C 12.1 °C 1011.2 hPa South 3.2 km/h 3.2 km/h 96% 0.0 mm CLR
06:00 12.7 °C 12.1 °C 1011.2 hPa Calm     96% 0.0 mm CLR
06:05 12.8 °C 12.2 °C 1011.1 hPa Calm   3.7 km/h 96% 0.0 mm CLR
06:10 12.8 °C 12.2 °C 1011.1 hPa South 1.6 km/h 3.2 km/h 96% 0.0 mm CLR
06:15 12.8 °C 12.2 °C 1011.1 hPa South 1.6 km/h 4.8 km/h 96% 0.0 mm CLR
06:20 12.8 °C 12.2 °C 1011.1 hPa South 2.3 km/h 5.8 km/h 96% 0.0 mm CLR
06:25 12.8 °C 12.2 °C 1011.1 hPa South 1.6 km/h 6.4 km/h 96% 0.0 mm CLR
06:29 12.8 °C 12.2 °C 1011.1 hPa South 3.9 km/h 7.4 km/h 96% 0.0 mm CLR
06:35 12.8 °C 12.2 °C 1011.3 hPa South 3.9 km/h 5.6 km/h 96% 0.0 mm CLR
06:40 12.8 °C 12.2 °C 1011.3 hPa South 3.9 km/h 7.4 km/h 96% 0.0 mm CLR
06:45 12.8 °C 12.2 °C 1011.3 hPa South 3.9 km/h 7.4 km/h 96% 0.0 mm CLR
06:50 12.7 °C 12.1 °C 1011.3 hPa South 4.8 km/h 8.0 km/h 96% 0.0 mm CLR
06:55 12.8 °C 12.2 °C 1011.3 hPa SW 5.0 km/h 7.4 km/h 96% 0.0 mm CLR
07:00 12.8 °C 12.2 °C 1011.3 hPa SSW 4.8 km/h 8.0 km/h 96% 0.0 mm CLR
07:05 12.8 °C 12.2 °C 1011.4 hPa SW 4.8 km/h 8.0 km/h 96% 0.0 mm CLR
07:10 12.8 °C 12.2 °C 1011.4 hPa SW 3.2 km/h 4.8 km/h 96% 0.0 mm CLR
07:15 12.8 °C 12.2 °C 1011.4 hPa SW 3.9 km/h 1.9 km/h 96% 0.0 mm CLR
07:19 12.8 °C 12.2 °C 1011.4 hPa Calm     96% 0.0 mm CLR
07:25 12.8 °C 12.2 °C 1011.4 hPa Calm     96% 0.0 mm CLR
07:29 12.8 °C 12.2 °C 1011.4 hPa Calm     96% 0.0 mm CLR
07:35 12.8 °C 12.2 °C 1011.5 hPa Calm     96% 0.0 mm CLR
07:40 12.8 °C 12.2 °C 1011.5 hPa Calm     96% 0.0 mm CLR
07:45 12.9 °C 12.3 °C 1011.5 hPa Calm   5.6 km/h 96% 0.0 mm CLR
07:50 12.9 °C 12.3 °C 1011.7 hPa SW 1.6 km/h 4.8 km/h 96% 0.0 mm CLR
07:55 12.9 °C 12.3 °C 1011.7 hPa SW 1.6 km/h 3.2 km/h 96% 0.0 mm CLR
08:00 12.9 °C 12.3 °C 1011.7 hPa Calm   1.6 km/h 96% 0.0 mm CLR
08:05 12.9 °C 12.3 °C 1011.6 hPa Calm     96% 0.0 mm CLR
08:10 12.9 °C 12.3 °C 1011.6 hPa Calm   3.2 km/h 96% 0.0 mm CLR
08:15 12.9 °C 12.3 °C 1011.6 hPa Calm   3.2 km/h 96% 0.0 mm CLR
08:20 12.9 °C 12.3 °C 1011.7 hPa SW 2.3 km/h 3.7 km/h 96% 0.0 mm CLR
08:25 12.9 °C 12.3 °C 1011.7 hPa SW 1.6 km/h 3.2 km/h 96% 0.0 mm CLR
08:30 12.9 °C 12.3 °C 1011.7 hPa Calm     96% 0.0 mm CLR
08:35 12.9 °C 12.3 °C 1011.9 hPa Calm   1.6 km/h 96% 0.0 mm CLR
08:40 13.0 °C 12.4 °C 1011.9 hPa Calm   3.2 km/h 96% 0.0 mm CLR
08:45 13.0 °C 12.4 °C 1011.9 hPa Calm   1.6 km/h 96% 0.0 mm CLR
08:50 13.1 °C 12.5 °C 1012.0 hPa Calm   3.2 km/h 96% 0.0 mm CLR
08:55 13.1 °C 12.5 °C 1012.0 hPa Calm   1.9 km/h 96% 0.0 mm CLR
09:00 13.1 °C 12.5 °C 1012.0 hPa Calm   3.2 km/h 96% 0.0 mm CLR
09:05 13.2 °C 12.6 °C 1012.2 hPa Calm     96% 0.0 mm CLR
09:10 13.2 °C 12.6 °C 1012.2 hPa Calm     96% 0.0 mm CLR
09:15 13.3 °C 12.7 °C 1012.2 hPa Calm   2.3 km/h 96% 0.0 mm CLR
09:20 13.3 °C 12.7 °C 1012.4 hPa Calm   4.8 km/h 96% 0.0 mm CLR
09:25 13.3 °C 12.7 °C 1012.4 hPa Calm   3.7 km/h 96% 0.0 mm CLR
09:30 13.4 °C 12.8 °C 1012.4 hPa SW 1.6 km/h 4.8 km/h 96% 0.0 mm CLR
09:35 13.4 °C 12.8 °C 1012.6 hPa SW 2.3 km/h 3.9 km/h 96% 0.0 mm CLR
09:40 13.4 °C 12.8 °C 1012.6 hPa SSW 1.6 km/h 9.7 km/h 96% 0.0 mm CLR
09:45 13.4 °C 12.8 °C 1012.6 hPa SSW 1.6 km/h 9.7 km/h 96% 0.0 mm CLR
09:50 13.4 °C 12.6 °C 1012.8 hPa SW 5.8 km/h 7.4 km/h 95% 0.0 mm CLR
09:55 13.5 °C 12.6 °C 1012.8 hPa SW 4.8 km/h 11.3 km/h 94% 0.0 mm CLR
10:00 13.6 °C 12.7 °C 1012.8 hPa SW 8.0 km/h 9.7 km/h 94% 0.0 mm CLR
10:05 13.8 °C 12.7 °C 1012.8 hPa SW 8.0 km/h 11.3 km/h 93% 0.0 mm CLR
10:10 13.8 °C 12.5 °C 1012.8 hPa WSW 8.0 km/h 11.3 km/h 92% 0.0 mm CLR
10:15 13.8 °C 12.4 °C 1012.8 hPa WSW 8.0 km/h 9.7 km/h 91% 0.0 mm CLR
10:20 13.9 °C 12.5 °C 1012.9 hPa WSW 3.2 km/h 8.0 km/h 91% 0.0 mm CLR
10:25 14.1 °C 12.5 °C 1012.9 hPa WSW 3.2 km/h 8.0 km/h 90% 0.0 mm CLR
10:30 14.2 °C 12.4 °C 1012.9 hPa West 4.7 km/h 7.4 km/h 89% 0.0 mm CLR
10:35 14.4 °C 12.4 °C 1013.1 hPa West 4.7 km/h 3.9 km/h 88% 0.0 mm CLR
10:40 14.4 °C 12.4 °C 1013.1 hPa West 3.2 km/h 3.2 km/h 88% 0.0 mm CLR
10:45 14.6 °C 12.4 °C 1013.1 hPa West 3.2 km/h 7.4 km/h 87% 0.0 mm CLR
10:50 14.8 °C 12.5 °C 1013.1 hPa West 2.3 km/h   86% 0.0 mm CLR
10:55 14.9 °C 12.6 °C 1013.1 hPa West 2.3 km/h   86% 0.0 mm CLR
11:00 15.0 °C 12.3 °C 1013.1 hPa Calm   8.0 km/h 84% 0.0 mm CLR
11:05 15.1 °C 12.2 °C 1013.3 hPa Calm   8.0 km/h 83% 0.0 mm CLR
11:10 15.2 °C 12.2 °C 1013.3 hPa SW 3.2 km/h 9.7 km/h 82% 0.0 mm CLR
11:15 15.3 °C 12.2 °C 1013.3 hPa SSW 3.9 km/h 7.4 km/h 82% 0.0 mm CLR
11:20 15.5 °C 12.6 °C 1013.5 hPa SSW 4.8 km/h 8.0 km/h 83% 0.0 mm CLR
11:25 15.6 °C 12.6 °C 1013.5 hPa South 4.8 km/h 11.3 km/h 82% 0.0 mm CLR
11:30 15.5 °C 12.4 °C 1013.5 hPa South 4.8 km/h 9.7 km/h 82% 0.0 mm CLR
11:35 15.6 °C 12.6 °C 1013.6 hPa SSE 4.8 km/h 9.7 km/h 82% 0.0 mm CLR
11:40 15.7 °C 12.6 °C 1013.6 hPa SSE 3.2 km/h 9.7 km/h 82% 0.0 mm CLR
11:45 15.8 °C 12.5 °C 1013.6 hPa South 3.2 km/h 12.9 km/h 81% 0.0 mm CLR
11:50 15.9 °C 12.4 °C 1013.7 hPa SSW 6.9 km/h 11.1 km/h 80% 0.0 mm CLR
11:55 15.9 °C 12.5 °C 1013.7 hPa SW 8.0 km/h 11.3 km/h 80% 0.0 mm CLR
12:00 16.1 °C 12.5 °C 1013.7 hPa WSW 4.8 km/h 9.7 km/h 79% 0.0 mm CLR
12:05 16.2 °C 12.4 °C 1013.8 hPa SSW 4.8 km/h 9.7 km/h 78% 0.0 mm CLR
12:10 16.3 °C 12.4 °C 1013.8 hPa SSW 3.2 km/h 8.0 km/h 78% 0.0 mm CLR
12:15 16.4 °C 12.2 °C 1013.8 hPa South 3.2 km/h 8.0 km/h 76% 0.0 mm CLR
12:20 16.4 °C 12.2 °C 1013.9 hPa SSE 3.9 km/h 7.6 km/h 76% 0.0 mm CLR
12:25 16.4 °C 12.3 °C 1013.9 hPa SE 3.2 km/h 9.7 km/h 77% 0.0 mm CLR
12:30 16.4 °C 12.2 °C 1013.9 hPa SSE 5.0 km/h 11.1 km/h 76% 0.0 mm CLR
12:35 16.4 °C 12.2 °C 1013.9 hPa SSE 5.0 km/h 9.3 km/h 76% 0.0 mm CLR
12:40 16.4 °C 12.3 °C 1013.9 hPa SE 8.0 km/h 11.3 km/h 77% 0.0 mm CLR
12:45 16.4 °C 12.2 °C 1013.9 hPa South 7.6 km/h 7.4 km/h 76% 0.0 mm CLR
12:50 16.5 °C 12.4 °C 1013.7 hPa SE 6.4 km/h 11.1 km/h 77% 0.0 mm CLR
12:55 16.7 °C 12.4 °C 1013.7 hPa ESE 8.0 km/h 11.3 km/h 76% 0.0 mm CLR
13:00 16.6 °C 12.3 °C 1013.7 hPa ESE 8.0 km/h 11.3 km/h 76% 0.0 mm CLR
13:05 16.7 °C 12.4 °C 1013.7 hPa ESE 6.9 km/h 7.4 km/h 76% 0.0 mm CLR
13:10 16.8 °C 12.5 °C 1013.7 hPa ESE 4.8 km/h 11.3 km/h 76% 0.0 mm CLR
13:15 16.8 °C 12.3 °C 1013.7 hPa ESE 5.0 km/h 7.6 km/h 75% 0.0 mm CLR
13:20 16.9 °C 12.4 °C 1013.6 hPa East 8.0 km/h 12.9 km/h 75% 0.0 mm CLR
13:25 16.9 °C 12.4 °C 1013.6 hPa ENE 8.0 km/h 12.9 km/h 75% 0.0 mm CLR
13:30 17.2 °C 12.5 °C 1013.6 hPa East 6.4 km/h 7.4 km/h 74% 0.0 mm CLR
13:35 17.4 °C 12.7 °C 1013.5 hPa ENE 8.0 km/h 9.7 km/h 74% 0.0 mm CLR
13:40 17.7 °C 12.8 °C 1013.5 hPa ENE 4.8 km/h 16.1 km/h 73% 0.0 mm CLR
13:45 17.6 °C 12.5 °C 1013.5 hPa ENE 5.8 km/h 13.0 km/h 72% 0.0 mm CLR
13:50 17.4 °C 12.3 °C 1013.3 hPa NE 8.0 km/h 16.1 km/h 72% 0.0 mm CLR
13:55 17.5 °C 12.4 °C 1013.3 hPa NE 8.0 km/h 12.9 km/h 72% 0.0 mm CLR
14:00 17.7 °C 12.4 °C 1013.3 hPa NE 8.0 km/h 11.3 km/h 71% 0.0 mm CLR
14:05 17.8 °C 12.4 °C 1013.2 hPa NE 6.9 km/h 15.6 km/h 71% 0.0 mm CLR
14:10 17.8 °C 12.1 °C 1013.2 hPa NE 8.7 km/h 14.8 km/h 69% 0.0 mm CLR
14:15 17.7 °C 11.9 °C 1013.2 hPa NE 9.7 km/h 12.9 km/h 69% 0.0 mm CLR
14:20 17.8 °C 11.6 °C 1013.0 hPa NE 9.7 km/h 12.9 km/h 67% 0.0 mm CLR
14:25 18.1 °C 11.7 °C 1013.0 hPa East 8.7 km/h 7.4 km/h 66% 0.0 mm CLR
14:30 18.3 °C 11.4 °C 1013.0 hPa NE 5.8 km/h 5.6 km/h 64% 0.0 mm CLR
14:35 18.4 °C 11.7 °C 1012.9 hPa NE 4.8 km/h 19.3 km/h 65% 0.0 mm CLR
14:40 18.3 °C 11.6 °C 1012.9 hPa NE 6.9 km/h 13.0 km/h 65% 0.0 mm CLR
14:45 18.4 °C 11.7 °C 1012.9 hPa ESE 6.9 km/h 9.3 km/h 65% 0.0 mm CLR
14:50 18.6 °C 11.7 °C 1012.8 hPa East 8.0 km/h 14.5 km/h 64% 0.0 mm CLR
14:55 18.6 °C 11.9 °C 1012.8 hPa NE 7.6 km/h 14.8 km/h 65% 0.0 mm CLR
15:00 18.6 °C 11.9 °C 1012.8 hPa ENE 9.7 km/h 16.1 km/h 65% 0.0 mm CLR
15:05 18.4 °C 11.9 °C 1012.7 hPa ENE 9.7 km/h 14.5 km/h 66% 0.0 mm CLR
15:10 18.6 °C 12.6 °C 1012.7 hPa ESE 7.6 km/h 13.0 km/h 68% 0.0 mm CLR
15:15 18.8 °C 12.3 °C 1012.7 hPa East 8.0 km/h 24.1 km/h 66% 0.0 mm CLR
15:20 18.7 °C 12.2 °C 1012.6 hPa ESE 9.5 km/h 16.7 km/h 66% 0.0 mm CLR
15:25 18.7 °C 12.4 °C 1012.6 hPa East 9.7 km/h 17.7 km/h 67% 0.0 mm CLR
15:30 18.7 °C 12.4 °C 1012.6 hPa ENE 10.0 km/h 13.0 km/h 67% 0.0 mm CLR
15:35 18.7 °C 12.4 °C 1012.4 hPa ENE 9.7 km/h 19.3 km/h 67% 0.0 mm CLR
15:40 18.6 °C 12.2 °C 1012.4 hPa East 11.3 km/h 22.5 km/h 66% 0.0 mm CLR
15:45 18.4 °C 11.9 °C 1012.4 hPa ENE 11.3 km/h 22.5 km/h 66% 0.0 mm CLR
15:50 18.2 °C 12.2 °C 1012.4 hPa ENE 11.1 km/h 9.3 km/h 68% 0.0 mm CLR
15:55 18.2 °C 12.2 °C 1012.4 hPa ENE 11.3 km/h 20.9 km/h 68% 0.0 mm CLR
16:00 18.2 °C 12.4 °C 1012.4 hPa East 11.3 km/h 22.5 km/h 69% 0.0 mm CLR
16:05 18.0 °C 12.2 °C 1012.5 hPa ESE 10.3 km/h 24.1 km/h 69% 0.0 mm CLR
16:10 17.8 °C 12.3 °C 1012.5 hPa ESE 11.3 km/h 24.1 km/h 70% 0.0 mm CLR
16:15 17.6 °C 12.4 °C 1012.5 hPa ESE 11.3 km/h 24.1 km/h 72% 0.0 mm CLR
16:20 17.3 °C 12.6 °C 1012.6 hPa SE 15.6 km/h 22.2 km/h 74% 0.3 mm RA
16:25 17.0 °C 12.7 °C 1012.6 hPa SE 15.6 km/h 24.1 km/h 76% 0.8 mm RA
16:30 16.8 °C 13.1 °C 1012.6 hPa ESE 13.7 km/h 14.8 km/h 79% 1.0 mm RA
16:35 16.6 °C 13.3 °C 1012.5 hPa SE 13.7 km/h 14.8 km/h 81% 1.5 mm RA
16:40 16.6 °C 13.3 °C 1012.5 hPa SE 11.9 km/h 18.5 km/h 81% 2.0 mm RA
16:45 16.6 °C 13.3 °C 1012.5 hPa ENE 11.9 km/h 13.0 km/h 81% 2.3 mm RA
16:50 16.7 °C 13.6 °C 1012.5 hPa SE 11.1 km/h 16.7 km/h 82% 2.3 mm RA
16:55 16.9 °C 13.8 °C 1012.5 hPa ESE 11.3 km/h 17.7 km/h 82% 0.0 mm
17:00 16.9 °C 13.4 °C 1012.5 hPa ESE 9.7 km/h 22.5 km/h 80% 0.0 mm
17:05 17.1 °C 13.1 °C 1012.6 hPa SE 9.5 km/h 25.9 km/h 77% 2.3 mm CLR
17:10 17.2 °C 12.9 °C 1012.6 hPa East 15.6 km/h 24.1 km/h 76% 2.3 mm CLR
17:15 17.2 °C 12.7 °C 1012.6 hPa ESE 14.5 km/h 25.7 km/h 75% 0.0 mm
17:20 17.3 °C 12.8 °C 1012.6 hPa ESE 16.1 km/h 22.2 km/h 75% 2.0 mm CLR
17:25 17.4 °C 12.7 °C 1012.6 hPa ESE 16.1 km/h 27.8 km/h 74% 1.5 mm CLR
17:30 17.4 °C 12.7 °C 1012.6 hPa ESE 16.1 km/h 29.6 km/h 74% 1.3 mm CLR
17:35 17.4 °C 12.9 °C 1012.6 hPa SE 16.1 km/h 20.4 km/h 75% 0.8 mm CLR
17:40 17.4 °C 12.9 °C 1012.6 hPa SE 18.0 km/h 16.7 km/h 75% 0.3 mm CLR
17:45 17.4 °C 12.5 °C 1012.6 hPa ESE 19.3 km/h 30.6 km/h 73% 0.0 mm CLR
17:50 17.3 °C 12.6 °C 1012.7 hPa ESE 16.1 km/h 30.6 km/h 74% 0.0 mm CLR
17:55 17.2 °C 12.5 °C 1012.7 hPa ESE 16.4 km/h 24.1 km/h 74% 0.0 mm CLR
18:00 17.3 °C 12.6 °C 1012.7 hPa ESE 19.3 km/h 29.0 km/h 74% 0.0 mm CLR
18:05 17.4 °C 12.5 °C 1012.8 hPa ESE 19.3 km/h 29.0 km/h 73% 0.0 mm CLR
18:10 17.4 °C 12.6 °C 1012.8 hPa SE 14.5 km/h 27.4 km/h 73% 0.0 mm CLR
18:15 17.4 °C 12.3 °C 1012.8 hPa SE 14.8 km/h 22.2 km/h 72% 0.0 mm CLR
18:20 17.4 °C 12.3 °C 1012.8 hPa SE 15.6 km/h 22.2 km/h 72% 0.0 mm CLR
18:25 17.4 °C 12.3 °C 1012.8 hPa ESE 15.6 km/h 27.8 km/h 72% 0.0 mm CLR
18:30 17.3 °C 12.2 °C 1012.8 hPa ESE 14.0 km/h 20.4 km/h 72% 0.0 mm CLR
18:35 17.3 °C 12.2 °C 1012.8 hPa SE 14.0 km/h 16.7 km/h 72% 0.0 mm CLR
18:40 17.3 °C 12.2 °C 1012.8 hPa ESE 12.2 km/h 25.9 km/h 72% 0.0 mm CLR
18:45 17.1 °C 12.0 °C 1012.8 hPa ESE 12.9 km/h 25.7 km/h 72% 0.0 mm CLR
18:50 16.9 °C 11.8 °C 1012.9 hPa ESE 14.5 km/h 22.5 km/h 72% 0.0 mm CLR
18:55 16.9 °C 11.8 °C 1012.9 hPa SE 14.8 km/h 16.7 km/h 72% 0.0 mm CLR
19:00 16.9 °C 11.8 °C 1012.9 hPa ESE 11.3 km/h 22.5 km/h 72% 0.0 mm CLR
19:05 16.8 °C 11.7 °C 1013.0 hPa ESE 11.3 km/h 20.9 km/h 72% 0.0 mm CLR
19:10 16.8 °C 11.7 °C 1013.0 hPa SE 10.0 km/h 16.7 km/h 72% 0.0 mm CLR
19:15 16.7 °C 11.6 °C 1013.0 hPa ESE 9.7 km/h 16.1 km/h 72% 0.0 mm CLR
19:20 16.7 °C 11.6 °C 1013.2 hPa ENE 8.7 km/h 7.4 km/h 72% 0.0 mm CLR
19:25 16.6 °C 11.7 °C 1013.2 hPa East 8.7 km/h 13.7 km/h 73% 0.0 mm CLR
19:30 16.4 °C 11.6 °C 1013.2 hPa East 8.0 km/h 12.9 km/h 73% 0.0 mm CLR
19:35 16.4 °C 11.6 °C 1013.4 hPa ENE 6.4 km/h 5.6 km/h 73% 0.0 mm CLR
19:40 16.4 °C 11.6 °C 1013.4 hPa East 6.9 km/h 7.4 km/h 73% 0.0 mm CLR
19:45 16.3 °C 11.2 °C 1013.4 hPa NE 6.9 km/h 13.7 km/h 72% 0.0 mm CLR
19:50 16.2 °C 11.3 °C 1013.6 hPa NNE 8.4 km/h 14.8 km/h 73% 0.0 mm CLR
19:55 16.1 °C 11.3 °C 1013.6 hPa NE 8.0 km/h 14.5 km/h 73% 0.0 mm CLR
20:00 16.1 °C 11.3 °C 1013.6 hPa ENE 9.7 km/h 12.9 km/h 73% 0.0 mm CLR
20:05 16.0 °C 11.2 °C 1013.7 hPa ENE 8.7 km/h 7.4 km/h 73% 0.0 mm CLR
20:10 16.0 °C 11.2 °C 1013.7 hPa East 6.4 km/h 9.3 km/h 73% 0.0 mm CLR
20:15 15.9 °C 11.3 °C 1013.7 hPa ENE 8.0 km/h 11.3 km/h 74% 0.0 mm CLR
20:20 15.9 °C 11.1 °C 1013.9 hPa East 8.0 km/h 9.7 km/h 73% 0.0 mm CLR
20:25 15.9 °C 11.1 °C 1013.9 hPa ENE 8.0 km/h 14.5 km/h 73% 0.0 mm CLR
20:30 15.9 °C 11.3 °C 1013.9 hPa ENE 4.8 km/h 9.7 km/h 74% 0.0 mm CLR
20:35 15.8 °C 10.9 °C 1014.1 hPa ESE 5.8 km/h 9.3 km/h 73% 0.0 mm CLR
20:40 15.8 °C 11.2 °C 1014.1 hPa East 8.0 km/h 16.1 km/h 74% 0.0 mm CLR
20:45 15.7 °C 10.9 °C 1014.1 hPa East 8.0 km/h 19.3 km/h 73% 0.0 mm CLR
20:50 15.7 °C 10.9 °C 1014.1 hPa ENE 9.7 km/h 14.5 km/h 73% 0.0 mm CLR
20:55 15.6 °C 10.8 °C 1014.1 hPa ENE 9.5 km/h 11.1 km/h 73% 0.0 mm CLR
21:00 15.6 °C 10.8 °C 1014.1 hPa NE 4.8 km/h 11.3 km/h 73% 0.0 mm CLR
21:05 15.6 °C 11.0 °C 1014.3 hPa NNE 5.0 km/h 11.1 km/h 74% 0.0 mm CLR
21:10 15.4 °C 10.8 °C 1014.3 hPa NE 5.8 km/h 14.8 km/h 74% 0.0 mm CLR
21:15 15.3 °C 10.9 °C 1014.3 hPa NE 5.8 km/h 11.1 km/h 75% 0.0 mm CLR
21:20 15.2 °C 11.0 °C 1014.5 hPa NE 8.7 km/h 13.0 km/h 76% 0.0 mm CLR
21:25 15.2 °C 11.4 °C 1014.5 hPa NE 9.7 km/h 14.5 km/h 78% 0.0 mm CLR
21:30 15.1 °C 11.5 °C 1014.5 hPa NE 10.0 km/h 16.7 km/h 79% 0.0 mm CLR
21:35 15.1 °C 11.4 °C 1014.7 hPa NE 9.7 km/h 16.1 km/h 79% 0.0 mm CLR
21:40 15.1 °C 11.7 °C 1014.7 hPa NNE 8.7 km/h 13.0 km/h 80% 0.0 mm CLR
21:45 15.0 °C 11.6 °C 1014.7 hPa NE 8.7 km/h 9.3 km/h 80% 0.0 mm CLR
21:50 14.9 °C 11.7 °C 1015.0 hPa NE 7.6 km/h 11.1 km/h 81% 0.0 mm CLR
21:55 14.9 °C 11.7 °C 1015.0 hPa NE 8.0 km/h 14.5 km/h 81% 0.0 mm CLR
22:00 14.9 °C 11.7 °C 1015.0 hPa NE 8.0 km/h 12.9 km/h 81% 0.0 mm CLR
22:05 14.9 °C 11.7 °C 1015.2 hPa ENE 7.6 km/h 7.4 km/h 81% 0.0 mm CLR
22:10 14.9 °C 11.8 °C 1015.2 hPa NE 5.8 km/h 9.3 km/h 82% 0.0 mm CLR
22:15 14.8 °C 11.8 °C 1015.2 hPa ENE 4.8 km/h 9.7 km/h 82% 0.0 mm CLR
22:20 14.8 °C 11.9 °C 1015.4 hPa NNE 6.4 km/h 7.4 km/h 83% 0.0 mm CLR
22:25 14.8 °C 12.1 °C 1015.4 hPa NE 6.4 km/h 11.1 km/h 84% 0.0 mm CLR
22:30 14.8 °C 12.1 °C 1015.4 hPa NNE 6.4 km/h 10.0 km/h 84% 0.0 mm CLR
22:35 14.7 °C 12.2 °C 1015.5 hPa NE 6.4 km/h 7.4 km/h 85% 0.0 mm CLR
22:40 14.6 °C 12.1 °C 1015.5 hPa NNE 6.4 km/h 10.0 km/h 85% 0.0 mm CLR
22:45 14.5 °C 12.2 °C 1015.5 hPa NE 8.0 km/h 11.3 km/h 86% 0.0 mm CLR
22:50 14.4 °C 12.1 °C 1015.6 hPa NE 6.9 km/h 9.3 km/h 86% 0.0 mm CLR
22:55 14.4 °C 12.3 °C 1015.6 hPa NE 8.0 km/h 9.7 km/h 87% 0.0 mm CLR
23:00 14.3 °C 12.2 °C 1015.6 hPa NE 4.8 km/h 8.0 km/h 87% 0.0 mm CLR
23:05 14.3 °C 12.2 °C 1015.7 hPa NNE 5.8 km/h 7.4 km/h 87% 0.0 mm CLR
23:10 14.3 °C 12.3 °C 1015.7 hPa NE 4.7 km/h 7.4 km/h 88% 0.0 mm CLR
23:15 14.3 °C 12.3 °C 1015.7 hPa NNE 3.2 km/h 11.3 km/h 88% 0.0 mm CLR
23:20 14.2 °C 12.2 °C 1015.7 hPa NE 6.4 km/h 9.3 km/h 88% 0.0 mm CLR
23:25 14.2 °C 12.2 °C 1015.7 hPa NE 6.4 km/h 9.3 km/h 88% 0.0 mm CLR
23:30 14.2 °C 12.2 °C 1015.7 hPa NE 8.0 km/h 9.7 km/h 88% 0.0 mm CLR
23:35 14.2 °C 12.2 °C 1015.6 hPa NNE 6.4 km/h 7.6 km/h 88% 0.0 mm CLR
23:40 14.2 °C 12.4 °C 1015.6 hPa NE 5.8 km/h 11.1 km/h 89% 0.0 mm CLR
23:45 14.2 °C 12.4 °C 1015.6 hPa NE 5.8 km/h 7.4 km/h 89% 0.0 mm CLR
23:49 14.2 °C 12.4 °C 1015.5 hPa NE 6.4 km/h 5.8 km/h 89% 0.0 mm CLR
23:54 14.2 °C 12.4 °C 1015.5 hPa NE 6.4 km/h 6.9 km/h 89% 0.0 mm CLR
Murcia-Puente Tocinos, España
Compliments of Weather Underground - 2.75 mb

La estación de MeteoMurcia.com, publica sus datos en los siguientes proyectos:

Weather Underground PWS IMURCIAP2 Meteoclimatic www.awekas.at

W3Counter
Web Analytics